Weather History for Yuma MCAS, AZ

Change the Weather History Date:

Wednesday, May 14, 2014

  Actual Average Record
Temperature  
Mean Temperature 84 °F 81 °F  
Max Temperature 99 °F 95 °F 113 °F (1927)
Min Temperature 68 °F 67 °F 52 °F (1933)
Degree Days  
Heating Degree Days 0 0  
Month to date heating degree days 0 0  
Since 1 July heating degree days 370 686  
Cooling Degree Days 19 16  
Month to date cooling degree days 196 198  
Year to date cooling degree days 808 604  
Growing Degree Days 34 (Base 50)    
Moisture  
Dew Point 16 °F    
Average Humidity 9    
Maximum Humidity 14    
Minimum Humidity 4    
Precipitation  
Precipitation 0.00 in 0.00 in 0.01 in (2003)
Month to date precipitation 0.00 0.04  
Year to date precipitation 0.07 1.28  
Sea Level Pressure  
Sea Level Pressure 30.02 in    
Wind  
Wind Speed 9 mph (NNE)    
Max Wind Speed 22 mph    
Max Gust Speed 27 mph    
Visibility 10 miles    
Events      
T = Trace of Precipitation, MM = Missing Value Source: NWS Daily Summary

Daily Weather History Graph

Daily Weather History Graph

Search for Another Location

Airport:

Trip Planner

Search our weather history database for the weather conditions in past years. The results will help you decide how hot, cold, wet, or windy it might be!

Date:

Astronomy

May. 14, 2014 Rise Set
Actual Time 5:40 AM MST 7:29 PM MST
Civil Twilight 5:13 AM MST 7:56 PM MST
Nautical Twilight 4:40 AM MST 8:29 PM MST
Astronomical Twilight 4:06 AM MST 9:04 PM MST
Moon 7:40 PM MST (5/14) 5:39 AM MST (5/14)
Length of Visible Light 14h 43m
Length of Day
13h 49m
Full, 100% of the Moon is Illuminated
May 14
Full
May 14
Full
May 21
Last Quarter
May 28
New
Jun 5
First Quarter

Hourly Weather History & Observations

Time (MST) Temp. Dew Point Humidity Pressure Visibility Wind Dir Wind Speed Gust Speed Precip Events Conditions
12:57 AM 75.0 °F 18.0 °F 12% 30.03 in 10.0 mi North 6.9 mph - N/A   Clear
1:57 AM 73.0 °F 19.9 °F 14% 30.03 in 10.0 mi NNE 8.1 mph - N/A   Clear
2:57 AM 72.0 °F 19.0 °F 13% 30.04 in 10.0 mi North 9.2 mph - N/A   Clear
3:57 AM 71.1 °F 17.1 °F 13% 30.04 in 10.0 mi North 9.2 mph - N/A   Clear
4:57 AM 69.1 °F 15.1 °F 13% 30.04 in 10.0 mi North 6.9 mph - N/A   Clear
5:57 AM 69.1 °F 12.9 °F 11% 30.05 in 10.0 mi North 9.2 mph - N/A   Clear
6:57 AM 73.0 °F 15.1 °F 11% 30.07 in 10.0 mi NNE 8.1 mph - N/A   Clear
7:57 AM 78.1 °F 17.1 °F 10% 30.09 in 10.0 mi North 11.5 mph - N/A   Clear
8:57 AM 84.0 °F 10.9 °F 6% 30.10 in 10.0 mi NNE 13.8 mph 20.7 mph N/A   Clear
9:57 AM 89.1 °F 15.1 °F 6% 30.09 in 10.0 mi ENE 20.7 mph - N/A   Clear
10:57 AM 91.9 °F 15.1 °F 6% 30.08 in 10.0 mi ENE 18.4 mph 21.9 mph N/A   Clear
11:57 AM 93.9 °F 16.0 °F 6% 30.06 in 10.0 mi ENE 15.0 mph 23.0 mph N/A   Clear
12:57 PM 95.0 °F 15.1 °F 5% 30.04 in 10.0 mi East 16.1 mph - N/A   Clear
1:57 PM 97.0 °F 14.0 °F 5% 30.02 in 10.0 mi ENE 13.8 mph 24.2 mph N/A   Clear
2:57 PM 97.0 °F 12.9 °F 5% 29.99 in 10.0 mi ENE 11.5 mph 19.6 mph N/A   Clear
3:57 PM 97.0 °F 14.0 °F 5% 29.97 in 10.0 mi Variable 6.9 mph - N/A   Clear
4:57 PM 98.1 °F 12.0 °F 4% 29.96 in 10.0 mi ENE 6.9 mph - N/A   Clear
5:57 PM 97.0 °F 12.0 °F 4% 29.94 in 10.0 mi North 9.2 mph - N/A   Clear
6:57 PM 93.9 °F 14.0 °F 5% 29.94 in 10.0 mi North 9.2 mph - N/A   Clear
7:57 PM 89.1 °F 15.1 °F 6% 29.96 in 10.0 mi North 5.8 mph - N/A   Clear
8:57 PM 82.9 °F 19.9 °F 10% 29.98 in 10.0 mi Calm Calm - N/A   Clear
9:57 PM 81.0 °F 24.1 °F 12% 29.99 in 10.0 mi Calm Calm - N/A   Clear
10:57 PM 78.1 °F 25.0 °F 14% 29.99 in 10.0 mi Calm Calm - N/A   Clear
11:57 PM 75.0 °F 26.1 °F 16% 29.99 in 10.0 mi NW 4.6 mph - N/A   Clear